Burlington, IA

8:56 PM CDT on May 22, 2017 (GMT -0500)
Burlington Regional

Weather History for KBRL - November, 2012

Change the Weather History Date:

Wednesday, November 14, 2012

  Actual Average Record
Temperature  
Mean Temperature 44 °F 43 °F  
Max Temperature 53 °F 53 °F 75 °F (1964)
Min Temperature 34 °F 34 °F 6 °F (1940)
Degree Days  
Heating Degree Days 21 22  
Month to date heating degree days 296 261  
Since 1 July heating degree days 841 655  
Cooling Degree Days 0 0  
Month to date cooling degree days 0 0  
Year to date cooling degree days 1287 1206  
Moisture  
Dew Point 28 °F    
Average Humidity 60    
Maximum Humidity 75    
Minimum Humidity 44    
Precipitation  
Precipitation 0.00 in 0.08 in 0.57 in (1991)
Month to date precipitation 1.28 1.20  
Year to date precipitation 22.30 35.09  
Sea Level Pressure  
Sea Level Pressure 30.40 in    
Wind  
Wind Speed 8 mph (South)    
Max Wind Speed 15 mph    
Max Gust Speed 18 mph    
Visibility 10 miles    
Events      
T = Trace of Precipitation, MM = Missing Value Source: NWS Daily Summary

Daily Weather History Graph

Daily Weather History Graph

Search for Another Location

Airport or City:

Trip Planner

Search our weather history database for the weather conditions in past years. The results will help you decide how hot, cold, wet, or windy it might be!

Date:

Astronomy

Nov. 14, 2012 Rise Set
Actual Time 6:50 AM CST 4:46 PM CST
Civil Twilight 6:21 AM CST 5:16 PM CST
Nautical Twilight 5:48 AM CST 5:49 PM CST
Astronomical Twilight 5:16 AM CST 6:21 PM CST
Moon 7:40 AM CST (11/14) 5:35 PM CST (11/14)
Length of Visible Light 10h 54m
Length of Day
9h 55m
New Moon, 1% of the Moon is Illuminated
Nov 14
New Moon
Nov 20
First Quarter
Nov 28
Full
Dec 6
Last Quarter
Dec 13
New

Hourly Weather History & Observations

Time (CST) Temp. Windchill Dew Point Humidity Pressure Visibility Wind Dir Wind Speed Gust Speed Precip Events Conditions
12:53 AM 36.0 °F 31.1 °F 25.0 °F 64% 30.45 in 10.0 mi South 5.8 mph - N/A   Clear
1:53 AM 36.0 °F 30.3 °F 25.0 °F 64% 30.46 in 10.0 mi South 6.9 mph - N/A   Clear
2:53 AM 36.0 °F 29.6 °F 25.0 °F 64% 30.45 in 10.0 mi South 8.1 mph - N/A   Clear
3:53 AM 36.0 °F 30.3 °F 26.1 °F 67% 30.45 in 10.0 mi South 6.9 mph - N/A   Clear
4:53 AM 36.0 °F 31.1 °F 26.1 °F 67% 30.44 in 10.0 mi South 5.8 mph - N/A   Clear
5:53 AM 36.0 °F 29.6 °F 26.1 °F 67% 30.44 in 10.0 mi South 8.1 mph - N/A   Clear
6:53 AM 34.0 °F 28.0 °F 26.1 °F 73% 30.45 in 10.0 mi South 6.9 mph - N/A   Partly Cloudy
7:53 AM 37.0 °F 30.4 °F 26.1 °F 65% 30.46 in 10.0 mi South 9.2 mph - N/A   Clear
8:53 AM 39.9 °F 33.4 °F 27.0 °F 60% 30.46 in 10.0 mi South 10.4 mph - N/A   Clear
9:53 AM 43.0 °F 36.8 °F 28.0 °F 56% 30.46 in 10.0 mi South 11.5 mph - N/A   Clear
10:53 AM 46.0 °F 41.0 °F 30.0 °F 54% 30.45 in 10.0 mi SSW 10.4 mph - N/A   Clear
11:53 AM 48.0 °F - 30.9 °F 52% 30.41 in 10.0 mi South 9.2 mph - N/A   Clear
12:53 PM 51.1 °F - 33.1 °F 50% 30.39 in 10.0 mi South 8.1 mph - N/A   Clear
1:53 PM 52.0 °F - 33.1 °F 49% 30.37 in 10.0 mi South 8.1 mph - N/A   Clear
2:53 PM 52.0 °F - 30.9 °F 45% 30.35 in 10.0 mi South 10.4 mph - N/A   Clear
3:53 PM 51.1 °F - 30.9 °F 46% 30.35 in 10.0 mi South 9.2 mph - N/A   Clear
4:53 PM 45.0 °F 41.8 °F 30.9 °F 58% 30.35 in 10.0 mi SSE 5.8 mph - N/A   Clear
5:53 PM 45.0 °F 40.6 °F 30.0 °F 56% 30.35 in 10.0 mi SSE 8.1 mph - N/A   Clear
6:53 PM 43.0 °F 37.2 °F 28.9 °F 58% 30.35 in 10.0 mi SSE 10.4 mph - N/A   Clear
7:53 PM 42.1 °F 36.6 °F 27.0 °F 55% 30.35 in 10.0 mi SSE 9.2 mph - N/A   Clear
8:53 PM 39.0 °F 35.7 °F 28.0 °F 65% 30.36 in 10.0 mi SSE 4.6 mph - N/A   Clear
9:53 PM 39.0 °F 32.8 °F 28.9 °F 67% 30.35 in 10.0 mi South 9.2 mph - N/A   Clear
10:53 PM 37.9 °F 32.1 °F 28.9 °F 70% 30.35 in 10.0 mi South 8.1 mph - N/A   Clear
11:53 PM 36.0 °F 31.1 °F 28.0 °F 73% 30.35 in 10.0 mi South 5.8 mph - N/A   Clear